Regional Weather Roundup
Issued by NWS

Home | Current Version | Previous Version | Text Only | Print | Product List | Glossary Off
Versions: 1 2 3 4 5 6 7 8 9 10 11 12 13 14 15 16 17 18 19 20 21 22 23 24 25 26 27 28 29 30 31 32 33 34 35 36 37 38 39 40 41 42 43 44 45 46 47 48 49 50

000
ASUS43 KDTX 190710
RWRMI
MICHIGAN HOURLY REGIONAL WEATHER ROUNDUP
NATIONAL WEATHER SERVICE DETROIT/PONTIAC MI
300 AM EDT SUN APR 19 2015

NOTE: "FAIR" INDICATES FEW OR NO CLOUDS BELOW 12,000 FEET WITH NO
SIGNIFICANT WEATHER AND/OR OBSTRUCTION TO VISIBILITY.

MIZ047>049-052>055-059>063-066>070-074>076-081>083-190800-
SOUTHEAST LOWER MICHIGAN

CITY           SKY/WX    TMP DP  RH WIND       PRES   REMARKS
ADRIAN         MOCLDY    47  31  53 E14       30.07F
ALMA           PTCLDY    41  33  73 E9        30.13F
ANN ARBOR      MOCLDY    46  30  53 E7        30.10F
BAD AXE        PTCLDY    36  30  77 E6        30.16F WCI  32
CARO           PTCLDY    39  29  67 CALM      30.14S
DETROIT CITY   PTCLDY    45  32  60 E9        30.12F
DETROIT        MOCLDY    48  31  51 N8        30.11F
FLINT          MOCLDY    44  30  57 E10       30.14F
GROSSE ILE     PTCLDY    45  36  70 NE9       30.09F
HILLSDALE      PTCLDY    51  27  39 E15       30.05F
HOWELL         MOCLDY    42  29  59 NE5       30.10F

CITY           SKY/WX    TMP DP  RH WIND       PRES   REMARKS
JACKSON        PTCLDY    47  29  49 E12       30.07F
LAMBERTVILLE   MOCLDY    50  34  53 E7        30.08F
LANSING        MOCLDY    43  29  57 E9        30.11F
LAPEER         FAIR      42  30  62 CALM      30.14S
MASON          MOCLDY    42  29  59 E7        30.09F
MONROE         PTCLDY    46  34  61 E6        30.08S
PONTIAC        MOCLDY    46  29  51 E10       30.11F
PORT HOPE        N/A     41  33  73 E12       30.16F
PORT HURON     PTCLDY    37  32  81 NE5       30.14F WCI  34
TRI CITIES     FAIR      42  31  64 E8        30.15F
TROY           PTCLDY    46  31  56 NE6       30.14S
SAGINAW HB     PTCLDY    36  30  80 E5        30.14S WCI  32
$$
MIZ043>046-050>051-056>058-064>065-071>073-077>080-190800-
SOUTHWEST LOWER MICHIGAN

CITY           SKY/WX    TMP DP  RH WIND       PRES   REMARKS
BATTLE CREEK   MOCLDY    49  26  41 E10       30.05F
BENTON HARBOR  CLOUDY    55  25  31 E13       29.98F
BIG RAPIDS     CLEAR     43  30  60 E10       30.10F
COLDWATER      PTCLDY    51  26  36 E9        30.03F
FREMONT        FAIR      46  26  45 E9G20     30.07S
HOLLAND        MOCLDY    50  30  46 E15G22    30.04F
GRAND RAPIDS   PTCLDY    46  28  49 E18G26    30.07F
IONIA          FAIR      43  30  59 E10       30.09F
KALAMAZOO      MOCLDY    51  23  33 E9        30.04F
LUDINGTON      CLEAR     48  22  35 E14G21    30.06S
MARSHALL       MOCLDY    47  27  44 E6        30.05F
MOUNT PLEASANT CLEAR     37  32  81 NE5       30.12F WCI  34
MUSKEGON       PTCLDY    48  28  46 E16       30.05F
SOUTH HAVEN    MOCLDY    55  19  24 E13G18    30.00F
$$
MIZ016>042-190800-
NORTHERN LOWER MICHIGAN

CITY           SKY/WX    TMP DP  RH WIND       PRES   REMARKS
ALPENA         CLEAR     40  28  62 E8        30.21S WCI  34
BEAVER ISLAND  CLEAR     37  28  69 E8        30.14S WCI  31
BELLAIRE       CLEAR     47  22  37 E3        30.13F
CADILLAC       CLEAR     41  26  56 E10       30.10F
CHARLEVOIX     CLEAR     46  24  41 SE9       30.15F
FRANKFORT      CLEAR     51  16  25 SE12G18   30.06F
GAYLORD        CLEAR     38  24  57 SE6       30.15F WCI  33
GRAYLING       CLEAR     32  23  69 CALM      30.15F
HARBOR SPRINGS CLEAR     42  25  52 E7        30.15F
HOUGHTON LAKE  CLEAR     34  26  72 E7        30.14F WCI  28
MANISTEE       CLEAR     46  21  36 E14G22    30.07F
OSCODA         CLEAR     40  31  68 E10G16    30.18F WCI  34
PELLSTON       PTCLDY    32  25  75 SE5       30.17S WCI  27
ROGERS CITY    CLEAR     39  30  72 SE8       30.22S WCI  33
TRAVERSE CITY  CLEAR     47  25  42 E7        30.10F
$$
MIZ007>008-015-190800-
EASTERN UPPER MICHIGAN

CITY           SKY/WX    TMP DP  RH WIND       PRES   REMARKS
KINROSS        CLEAR     39  27  60 E15G21    30.17F WCI  31
MACKINAC ISLAN PTCLDY    38  29  69 E14G24    30.17R WCI  30
NEWBERRY       PTCLDY    34  27  76 E10       30.15R WCI  26
S. S. MARIE    CLEAR     40  22  48 E8        30.19S WCI  34
MUNISING         N/A     37  27  67 S7        30.12F WCI  32
$$
MIZ004>006-011>014-085-190800-
CENTRAL UPPER MICHIGAN

CITY           SKY/WX    TMP DP  RH WIND       PRES   REMARKS
MANISTIQUE     CLEAR     38  29  71 E7        30.13S WCI  32
ESCANABA       CLEAR     39  27  60 E8        30.10F WCI  34
MENOMINEE      CLEAR     39  28  65 E7        30.06F WCI  34
SAWYER-GWINN   CLEAR     37  25  60 SE8       30.09F WCI  31
$$
MIZ001>003-009>011-084-190800-
WESTERN UPPER MICHIGAN

CITY           SKY/WX    TMP DP  RH WIND       PRES   REMARKS
IRON MOUNTAIN  CLEAR     39  26  59 SE7       30.06F WCI  34
HOUGHTON       PTCLDY    35  28  75 E12       30.08F WCI  27
COPPER HARBOR    N/A     35  29  78 S6        30.10F WCI  30
IRONWOOD       CLOUDY    52  21  30 SE10G26   29.94F
$$

ABBREVIATIONS USED IN REMARKS
   TC - TEMPERATURE IN CELSIUS
  WCI - WIND CHILL INDEX
   HX - HEAT INDEX
  VSB - VISIBILITY



USA.gov is the U.S. government's official web portal to all federal, state and local government web resources and services.